Weather History for Little Rock, AR

Change the Weather History Date:

Monday, February 17, 2014

  Actual Average Record
Temperature  
Mean Temperature 56 °F 46 °F  
Max Temperature 70 °F 55 °F 78 °F (1986)
Min Temperature 42 °F 37 °F 12 °F (1980)
Degree Days  
Heating Degree Days 9 19  
Month to date heating degree days 506 360  
Since 1 July heating degree days 2646 2293  
Cooling Degree Days 0 0  
Month to date cooling degree days 0 0  
Year to date cooling degree days 0 1  
Growing Degree Days 8 (Base 50)    
Moisture  
Dew Point 36 °F    
Average Humidity 54    
Maximum Humidity 76    
Minimum Humidity 19    
Precipitation  
Precipitation 0.00 in 0.13 in 0.75 in (1976)
Month to date precipitation 3.00 2.10  
Year to date precipitation 5.31 5.52  
Snow  
Snow 0.00 in 0.10 in 4.00 in (1978)
Month to date snowfall 2.5 1.3  
Since 1 July snowfall 3.6 3.5  
Snow Depth 0.00 in    
Sea Level Pressure  
Sea Level Pressure 30.01 in    
Wind  
Wind Speed 7 mph (NNW)    
Max Wind Speed 30 mph    
Max Gust Speed 40 mph    
Visibility 9 miles    
Events      
T = Trace of Precipitation, MM = Missing Value Source: NWS Daily Summary

Daily Weather History Graph

Daily Weather History Graph

Search for Another Location

Airport:

Trip Planner

Search our weather history database for the weather conditions in past years. The results will help you decide how hot, cold, wet, or windy it might be!

Date:

Astronomy

Feb. 17, 2014 Rise Set
Actual Time 6:52 AM CST 5:53 PM CST
Civil Twilight 6:26 AM CST 6:19 PM CST
Nautical Twilight 5:57 AM CST 6:49 PM CST
Astronomical Twilight 5:27 AM CST 7:18 PM CST
Moon 8:39 PM CST (2/17) 8:01 AM CST (2/17)
Length of Visible Light 11h 53m
Length of Day
11h 01m
Waning Gibbous, 93% of the Moon is Illuminated
Feb 17
Waning Gibbous
Feb 22
Last Quarter
Mar 1
New
Mar 8
First Quarter
Mar 16
Full

Hourly Weather History & Observations

Time (CST) Temp. Windchill Dew Point Humidity Pressure Visibility Wind Dir Wind Speed Gust Speed Precip Events Conditions
12:53 AM 43.0 °F 38.2 °F 36.0 °F 76% 30.07 in 9.0 mi East 8.1 mph - N/A   Overcast
1:53 AM 44.1 °F 39.5 °F 36.0 °F 73% 30.04 in 8.0 mi East 8.1 mph - N/A   Overcast
2:53 AM 43.0 °F 38.8 °F 36.0 °F 76% 30.02 in 7.0 mi East 6.9 mph - N/A   Overcast
3:53 AM 44.1 °F 41.5 °F 36.0 °F 73% 29.98 in 7.0 mi East 4.6 mph - N/A   Overcast
4:53 AM 45.0 °F 43.5 °F 36.0 °F 71% 29.96 in 6.0 mi East 3.5 mph - N/A   Overcast
5:53 AM 45.0 °F 41.8 °F 37.0 °F 74% 29.94 in 6.0 mi East 5.8 mph - N/A   Overcast
6:16 AM 44.6 °F 42.2 °F 37.4 °F 76% 29.93 in 7.0 mi ESE 4.6 mph - N/A   Overcast
6:46 AM 46.4 °F - 37.4 °F 71% 29.92 in 6.0 mi Calm Calm - N/A   Overcast
6:53 AM 46.0 °F 44.8 °F 37.0 °F 71% 29.93 in 6.0 mi East 3.5 mph - N/A   Overcast
7:26 AM 46.4 °F - 37.4 °F 71% 29.93 in 7.0 mi Calm Calm - N/A   Overcast
7:53 AM 48.0 °F - 37.9 °F 68% 29.93 in 7.0 mi Calm Calm - N/A   Overcast
8:53 AM 50.0 °F - 39.9 °F 68% 29.95 in 10.0 mi Calm Calm - N/A   Overcast
9:17 AM 51.8 °F - 41.0 °F 67% 29.95 in 10.0 mi Calm Calm - N/A   Overcast
9:53 AM 52.0 °F - 39.9 °F 63% 29.96 in 10.0 mi NW 6.9 mph - N/A   Overcast
10:23 AM 55.4 °F - 42.8 °F 63% 29.95 in 10.0 mi Variable 3.5 mph - N/A   Mostly Cloudy
10:53 AM 61.0 °F - 46.9 °F 60% 29.96 in 10.0 mi WSW 5.8 mph - N/A   Mostly Cloudy
11:53 AM 70.0 °F - 54.0 °F 57% 29.93 in 10.0 mi WSW 13.8 mph 23.0 mph N/A   Mostly Cloudy
12:53 PM 73.0 °F - 48.9 °F 42% 29.95 in 10.0 mi WNW 29.9 mph 40.3 mph N/A   Mostly Cloudy
1:53 PM 70.0 °F - 37.9 °F 31% 29.98 in 10.0 mi NW 24.2 mph 33.4 mph N/A   Mostly Cloudy
2:53 PM 73.0 °F - 32.0 °F 22% 30.00 in 10.0 mi West 19.6 mph 25.3 mph N/A   Mostly Cloudy
3:53 PM 71.1 °F - 28.9 °F 21% 30.02 in 10.0 mi WNW 15.0 mph - N/A   Scattered Clouds
4:53 PM 71.1 °F - 27.0 °F 19% 30.02 in 10.0 mi West 6.9 mph - N/A   Scattered Clouds
5:53 PM 68.0 °F - 26.1 °F 21% 30.04 in 10.0 mi WSW 3.5 mph - N/A   Scattered Clouds
6:53 PM 60.1 °F - 28.0 °F 30% 30.09 in 10.0 mi NNW 4.6 mph - N/A   Scattered Clouds
7:53 PM 55.0 °F - 28.9 °F 37% 30.14 in 10.0 mi NNW 8.1 mph - N/A   Scattered Clouds
8:53 PM 55.0 °F - 25.0 °F 31% 30.17 in 10.0 mi NNW 6.9 mph - N/A   Scattered Clouds
9:53 PM 54.0 °F - 23.0 °F 30% 30.17 in 10.0 mi Calm Calm - N/A   Partly Cloudy
10:53 PM 46.0 °F - 28.0 °F 50% 30.16 in 10.0 mi Calm Calm - N/A   Clear
11:53 PM 42.1 °F - 28.0 °F 58% 30.16 in 10.0 mi Calm Calm - N/A   Clear